Weather History for Kirksville, MO

Change the Weather History Date:

Monday, May 6, 2013

  Actual Average Record
Temperature  
Mean Temperature 63 °F 58 °F  
Max Temperature 74 °F 69 °F 89 °F (1934)
Min Temperature 51 °F 48 °F 32 °F (1989)
Degree Days  
Heating Degree Days 2 7  
Month to date heating degree days 88 48  
Since 1 July heating degree days 5934 5738  
Cooling Degree Days 0 1  
Month to date cooling degree days 0 5  
Year to date cooling degree days 10 12  
Growing Degree Days 12 (Base 50)    
Moisture  
Dew Point 51 °F    
Average Humidity 71    
Maximum Humidity 100    
Minimum Humidity 41    
Precipitation  
Precipitation 0.00 in 0.17 in 2.46 in (1960)
Month to date precipitation 1.11 1.11  
Year to date precipitation 17.08 10.30  
Sea Level Pressure  
Sea Level Pressure 30.04 in    
Wind  
Wind Speed 7 mph (North)    
Max Wind Speed 15 mph    
Max Gust Speed 20 mph    
Visibility 7 miles    
Events      
T = Trace of Precipitation, MM = Missing Value Source: NWS Daily Summary

Daily Weather History Graph

Daily Weather History Graph

Search for Another Location

Airport:

Trip Planner

Search our weather history database for the weather conditions in past years. The results will help you decide how hot, cold, wet, or windy it might be!

Date:

Astronomy

May. 06, 2013 Rise Set
Actual Time 6:03 AM CDT 8:10 PM CDT
Civil Twilight 5:33 AM CDT 8:40 PM CDT
Nautical Twilight 4:57 AM CDT 9:17 PM CDT
Astronomical Twilight 4:17 AM CDT 9:57 PM CDT
Moon 4:06 AM CDT (5/6) 5:10 PM CDT (5/6)
Length of Visible Light 15h 06m
Length of Day
14h 06m
Waning Crescent, 11% of the Moon is Illuminated
May 6
Waning Crescent
May 9
New
May 17
First Quarter
May 24
Full
May 31
Last Quarter

Hourly Weather History & Observations

Time (CDT) Temp. Dew Point Humidity Pressure Visibility Wind Dir Wind Speed Gust Speed Precip Events Conditions
12:55 AM 55.0 °F 53.1 °F 93% 30.04 in 5.0 mi North 12.7 mph - N/A   Overcast
1:48 AM 53.6 °F 51.8 °F 94% 30.03 in 4.0 mi NNW 12.7 mph - N/A   Overcast
1:55 AM 54.0 °F 52.0 °F 93% 30.04 in 4.0 mi North 12.7 mph - N/A   Overcast
2:55 AM 53.1 °F 52.0 °F 96% 30.03 in 4.0 mi North 9.2 mph 17.3 mph N/A   Overcast
3:55 AM 52.0 °F 51.1 °F 97% 30.04 in 3.0 mi North 6.9 mph - N/A   Overcast
4:55 AM 52.0 °F 51.1 °F 97% 30.04 in 3.0 mi NNW 8.1 mph - N/A   Mostly Cloudy
5:03 AM 51.8 °F 50.0 °F 94% 30.03 in 3.0 mi NNW 5.8 mph - N/A   Scattered Clouds
5:55 AM 51.1 °F 50.0 °F 96% 30.05 in 4.0 mi NNW 5.8 mph - N/A   Clear
6:15 AM 51.8 °F 50.0 °F 94% 30.04 in 2.5 mi NNW 8.1 mph - N/A   Clear
6:42 AM 51.8 °F 50.0 °F 94% 30.05 in 2.5 mi NNW 9.2 mph - N/A   Partly Cloudy
6:55 AM 52.0 °F 51.1 °F 97% 30.06 in 2.5 mi NNW 8.1 mph - N/A   Partly Cloudy
7:08 AM 53.6 °F 51.8 °F 94% 30.05 in 3.0 mi NNW 6.9 mph - N/A   Clear
7:55 AM 55.9 °F 52.0 °F 87% 30.08 in 5.0 mi NNW 10.4 mph - N/A   Clear
8:55 AM 59.0 °F 53.1 °F 81% 30.08 in 7.0 mi NNW 5.8 mph - N/A   Clear
9:55 AM 62.1 °F 53.1 °F 72% 30.08 in 9.0 mi North 6.9 mph - N/A   Clear
10:55 AM 66.0 °F 54.0 °F 65% 30.08 in 10.0 mi North 8.1 mph - N/A   Clear
11:55 AM 66.9 °F 53.1 °F 61% 30.07 in 10.0 mi NNW 9.2 mph - N/A   Clear
12:55 PM 69.1 °F 52.0 °F 54% 30.05 in 10.0 mi North 10.4 mph - N/A   Clear
1:55 PM 72.0 °F 53.1 °F 51% 30.04 in 10.0 mi North 8.1 mph - N/A   Clear
2:55 PM 72.0 °F 52.0 °F 49% 30.04 in 10.0 mi North 8.1 mph 17.3 mph N/A   Scattered Clouds
3:55 PM 73.0 °F 48.9 °F 42% 30.02 in 10.0 mi NNE 5.8 mph - N/A   Clear
4:55 PM 72.0 °F 46.9 °F 41% 30.01 in 10.0 mi North 5.8 mph - N/A   Mostly Cloudy
5:55 PM 69.1 °F 46.9 °F 45% 30.02 in 10.0 mi North 8.1 mph - N/A   Mostly Cloudy
6:55 PM 71.1 °F 50.0 °F 47% 30.01 in 10.0 mi North 6.9 mph - N/A   Mostly Cloudy
7:55 PM 64.0 °F 48.9 °F 58% 30.02 in 10.0 mi North 5.8 mph - N/A   Clear
8:55 PM 63.0 °F 48.9 °F 60% 30.03 in 10.0 mi ENE 3.5 mph - N/A   Clear
9:55 PM 55.0 °F 48.9 °F 80% 30.05 in 10.0 mi Calm Calm - N/A   Mostly Cloudy
10:55 PM 55.0 °F 52.0 °F 89% 30.05 in 10.0 mi Calm Calm - N/A   Overcast
11:55 PM 53.1 °F 51.1 °F 93% 30.06 in 10.0 mi WNW 3.5 mph - N/A   Mostly Cloudy